Первомайский

Россия / Московская область     55°56′35″N   37°53′31″E
темп.,
°C
ветер,
м/с
пор.,
м/с
влажн.,
%
обл.,
%
осадки,
мм/ч
давл.,
гПа
погр.,
м
15 апреля, чт
чт1500:00+11юв2261100 0.0 101714
03:00+9в226483 0.0 101720
06:00+8всв2370100 0.0 101755
09:00+13всв3455100 0.0 1017263
12:00+17в344283 0.0 1017848
15:00+19всв463795 0.0 10161829
18:00+16всв61049100 0.0 1017805
21:00+12св61480100 0.0 1018606
16 апреля, пт
пт1600:00+9всв61487100 0.0 1019490
03:00+7всв51389100 0.0 1020447
06:00+6всв51390100 0.0 1020445
09:00+9всв61077100 0.0 1021501
12:00+13всв6860100 0.0 1021825
15:00+15всв6855100 0.0 10211220
18:00+13всв61064100 0.0 10221069
21:00+10всв61371100 0.0 1023757
17 апреля, сб
сб1700:00+9всв51376100 0.0 1023695
03:00+7всв51381100 0.0 1024578
06:00+6всв5137793 0.0 1025512
09:00+8всв51161100 0.2 1026600
12:00+13всв684830 0.0 10251030
15:00+14всв68415 0.0 10251388
18:00+12всв59383 0.0 10261200
21:00+8св512522 0.0 1026487
18 апреля, вс
вс1800:00+6всв412621 0.0 1027381
03:00+4св310720 0.0 1028265
06:00+3св310750 0.0 1029248
09:00+9всв48545 0.0 1029701
12:00+12всв56395 0.0 10291566
15:00+13всв56345 0.0 10291846
18:00+12всв46415 0.0 10291589
21:00+8всв27635 0.0 1030128
19 апреля, пн
пн1900:00+6в2971100 0.0 1031188
03:00+5всв3874100 0.0 1032219
06:00+5в3982100 0.0 1033345
09:00+8вюв576169 0.0 1033646
12:00+11вюв564637 0.0 10321349
15:00+12вюв563856 0.0 10311737
18:00+11вюв5640100 0.0 10311486
21:00+6в4115176 0.0 1031410